DMSP 5D-2 F14 DEB, 62938

Orbit data source: Space-Track

DMSP 5D-2 F14 DEB, 62938 is space debris in SSO originally from a launch on Fri, 04 Apr 1997 UTC launched from the Air Force Western Test Range (AFWTR). Debris objects in space refer to the collection of defunct objects orbiting the Earth. Examples of debris include non-operational satellites, rocket bodies, and fragments generated from explosions, collisions, or faulty payload assembly.

Loading next visibility...
Identifier
62938, 1997-012J
Orbit
SSO
Country
Flag of USUS
Related business
Manufacturer
LMT/EW
Mission
Spacecraft
Bus & Motor
Unknown
Mass
Unknown
Launch date (UTC)
1997-04-04 (29 years ago)
Launch vehicle
Unknown
Launch site
Air Force Western Test Range (AFWTR)
Object type
Payload
Rocket body
Debris
Shape & HBR
Unknown shape, 0.1 m
Radar Cross Section
Small (<0.1 m²)

Expand to show TLE details & history
Last TLE update: 2 days ago

TLE from 2 days ago
0 DMSP 5D-2 F14 DEB
1 62938U 97012J   26170.08139950  .00001268  00000-0  62358-3 0  9992
2 62938  98.8331 223.4238 0003433 106.6877 253.4676 14.19459637 77370
Epoch: 2026-06-19T01:57Z
TLE epoch observation values (Epoch: 2026-06-19T01:57:12.916Z)
Latitude
-0.00002°
Longitude
-73.19551°
Altitude
830.795 km
Speed
7.437 km/s
True Right ascension
14h 53m 41s
True Declination
0° 00' 00"
Sunlit
Object was in full shadow at epoch
Visualization orbit readout
Latitude
Unknown
Longitude
Unknown
Altitude
Unknown
Speed
Unknown
Apparent Right ascension
Unknown
Apparent Declination
Unknown
Sunlit
N/A
Visualization observer readout
Local Sidereal Time
07:17:20
Azimuth
Unknown
Elevation
Unknown
Doppler factor
Unknown
Orbital elements
Apogee altitude
826.819 km
Perigee altitude
821.873 km
Semi-major axis
7,202.483 km
Eccentricity
0.00034
Inclination
98.8331°
RAAN
223.4238°
Arg. of periapsis
106.6877°
True anomaly
253.42989°
Mean anomaly
253.4676°
Eccentric anomaly
253.44875°
Mean motion
3.55075 °/min
Orbital period
101.39 mins
BSTAR
0.00062358
Loading maneuver chart data...
Computing Atmospheric mass density...

Documentation

Showing up to 5 results
|